Location: Cartersville (historical)
(42.9944°N, 93.0869°W)
Time: 21:15:51
(UTC+00:00)

ARIANE 6 FM1 Upper Stage - Pass Details

Date: 12 October 2024
Orbit: 558 x 596 km, 62.0° (Epoch: 11 November)

Event Time Altitude Azimuth Distance (km) Brightness Sun altitude
Rises 02:18:33 0° 330° (NNW) 2,829 6.9 -30.3°
Reaches altitude 10° 02:21:21 10° 348° (NNW) 1,932 5.7 -30.8°
Enters shadow 02:21:53 12° 354° (N) 1,794 5.5 -30.9°
